This is the latest recevied weather packets stored in our database for station/object DL8GAK-13. If no packets are shown the sender has not sent any weather packets the latest 10 day(s).
| Time | Temp. | Humidity | Pressure | Rain* | Wind** | Luminosity | Snow |
|---|---|---|---|---|---|---|---|
| 1787828989 | 28.89° C | 62% | 1022.5 hPa | - | - | - | - |
| 1787828388 | 28.89° C | 64% | 1022.6 hPa | - | - | - | - |
| 1787827787 | 28.33° C | 65% | 1022.7 hPa | - | - | - | - |
| 1787827186 | 27.78° C | 66% | 1022.8 hPa | - | - | - | - |
| 1787826585 | 27.78° C | 67% | 1023 hPa | - | - | - | - |
| 1787825984 | 27.22° C | 68% | 1023.1 hPa | - | - | - | - |
| 1787825383 | 27.22° C | 69% | 1023.2 hPa | - | - | - | - |
| 1787824782 | 26.67° C | 70% | 1023.3 hPa | - | - | - | - |
| 1787824182 | 26.11° C | 71% | 1023.5 hPa | - | - | - | - |
| 1787823584 | 25° C | 72% | 1023.4 hPa | - | - | - | - |
| 1787822980 | 25° C | 73% | 1023.5 hPa | - | - | - | - |
| 1787822379 | 24.44° C | 73% | 1023.5 hPa | - | - | - | - |
| 1787821778 | 23.89° C | 74% | 1023.6 hPa | - | - | - | - |
| 1787821177 | 23.33° C | 75% | 1023.6 hPa | - | - | - | - |
| 1787820576 | 23.33° C | 76% | 1023.4 hPa | - | - | - | - |
| 1787819976 | 22.78° C | 78% | 1023.3 hPa | - | - | - | - |
| 1787819375 | 21.67° C | 78% | 1023.3 hPa | - | - | - | - |
| 1787818774 | 21.11° C | 79% | 1023.4 hPa | - | - | - | - |
| 1787818173 | 21.11° C | 80% | 1023.4 hPa | - | - | - | - |
| 1787817572 | 20.56° C | 80% | 1023.6 hPa | - | - | - | - |
| 1787816971 | 20° C | 80% | 1023.6 hPa | - | - | - | - |
| 1787816370 | 20° C | 80% | 1023.5 hPa | - | - | - | - |
| 1787815769 | 19.44° C | 81% | 1023.6 hPa | - | - | - | - |
| 1787815169 | 19.44° C | 81% | 1023.4 hPa | - | - | - | - |
| 1787814568 | 18.89° C | 81% | 1022.9 hPa | - | - | - | - |
* Rain since midnight (hover to see other rain measurements)
** Current wind speed in m/s (hover to see current wind gust speed)